Location: Gerlach
(40.6516°N, 119.3568°W)
Time: 01:56:31
(UTC-08:00)

Transit 4A - Visible Passes

Search period start: 31 January 2023 00:00
Search period end: 10 February 2023 00:00
Orbit: 871 x 973 km, 66.8° (Epoch: 30 January)

Date Brightness Start Highest point End Pass type
(mag) Time Alt. Az. Time Alt. Az. Time Alt. Az.
31 Jan 7.8 17:52:01 10° SSW 17:57:46 64° ESE 18:03:31 10° NE visible
31 Jan 9.8 19:40:02 10° W 19:44:34 23° NW 19:48:46 11° N visible
01 Feb 7.8 18:01:06 10° SSW 18:06:56 86° WNW 18:12:47 10° NNE visible
01 Feb 10.1 19:50:29 10° W 19:54:08 17° NW 19:57:49 10° N visible
02 Feb 8.4 18:10:27 10° SW 18:16:11 58° WNW 18:21:56 10° NNE visible
02 Feb 10.3 20:01:30 10° WNW 20:03:49 12° NW 20:06:09 10° NNW visible
03 Feb 9.0 18:20:05 10° WSW 18:25:31 40° NW 18:30:59 10° NNE visible
04 Feb 9.5 18:29:58 10° WSW 18:34:56 28° NW 18:39:56 10° N visible
05 Feb 9.9 18:40:10 10° W 18:44:26 21° NW 18:48:45 10° N visible
06 Feb 10.2 18:50:47 10° WNW 18:54:03 15° NW 18:57:21 10° N visible
07 Feb 10.3 19:02:09 10° NW 19:03:46 11° NNW 19:05:23 10° NNW visible
